Location: Unspecified
(58.9933°N, 5.6375°E)
Time: 14:11:30
(UTC+01:00)

Okean 3 - Visible Passes

Search period start: 21 January 2017 00:00
Search period end: 31 January 2017 00:00
Orbit: 577 x 603 km, 82.5° (Epoch: 20 January)

Date Brightness Start Highest point End Pass type
(mag) Time Alt. Az. Time Alt. Az. Time Alt. Az.
27 Jan 6.2 20:35:46 10° N 20:35:53 11° N 20:35:53 11° N visible
28 Jan 6.1 20:44:03 10° N 20:44:25 12° N 20:44:25 12° N visible
29 Jan 5.8 19:15:56 10° NNE 19:16:25 12° NNE 19:16:25 12° NNE visible
29 Jan 6.1 20:52:22 10° N 20:52:58 14° N 20:52:58 14° N visible
30 Jan 5.6 19:23:59 10° N 19:25:00 14° NNE 19:25:00 14° NNE visible
30 Jan 6.0 21:00:43 10° NNW 21:01:34 16° NNW 21:01:34 16° NNW visible
